Total_Precipitation_Accumulation
1.19 1.30 1.32 1.29 1.31 1.33 1.27 1.21 1.20 1.19 1.19 1.26 1.32 1.48 1.66 1.87 2.07 2.22 2.22 2.19 2.19 2.16 2.08 2.19 2.34 2.38 2.49 2.53 2.55 2.45 2.31 2.26 2.18 1.98 1.78 1.67 1.85 1.85 1.74 1.64 1.49 1.44 1.45
1.12 1.17 1.27 1.25 1.21 1.26 1.23 1.27 1.18 1.09 1.08 1.11 1.26 1.48 1.59 1.67 1.74 1.84 1.89 1.92 1.96 2.03 1.98 1.95 2.01 2.09 2.21 2.37 2.46 2.44 2.44 2.34 2.27 2.27 2.07 1.82 1.74 1.80 1.82 1.88 1.76 1.52 1.47
1.23 1.30 1.30 1.26 1.24 1.28 1.20 1.28 1.19 1.12 1.10 1.10 1.19 1.34 1.41 1.48 1.54 1.59 1.71 1.80 1.82 1.79 1.81 1.71 1.69 1.78 1.91 2.05 2.13 2.22 2.37 2.40 2.42 2.40 2.33 2.12 1.86 1.85 1.91 1.92 1.93 1.97 1.70
1.48 1.48 1.38 1.32 1.24 1.20 1.16 1.17 1.15 1.12 1.12 1.15 1.27 1.33 1.37 1.36 1.48 1.54 1.61 1.59 1.53 1.46 1.49 1.45 1.44 1.46 1.56 1.72 1.85 2.05 2.25 2.37 2.45 2.46 2.41 2.19 2.00 1.92 1.89 1.93 2.03 2.08 2.04
1.46 1.42 1.40 1.27 1.14 1.08 1.08 1.02 1.07 1.14 1.13 1.20 1.27 1.35 1.40 1.41 1.43 1.49 1.45 1.36 1.34 1.31 1.27 1.13 1.12 1.19 1.22 1.32 1.33 1.61 1.88 2.11 2.24 2.30 2.30 2.16 1.94 1.83 1.70 1.73 1.88 2.06 2.12
1.38 1.33 1.24 1.12 1.09 1.03 0.96 0.92 0.94 0.98 1.03 1.08 1.14 1.31 1.42 1.32 1.47 1.42 1.25 1.14 1.12 1.16 1.12 1.01 0.97 1.01 0.95 0.95 0.98 1.21 1.52 1.69 1.85 2.04 2.10 1.98 1.81 1.73 1.79 1.77 1.77 1.83 1.86
1.17 1.13 1.03 0.96 0.93 0.91 0.86 0.88 0.90 0.91 0.96 1.01 1.00 1.14 1.22 1.32 1.33 1.15 1.16 1.09 1.09 1.09 1.10 1.11 1.01 0.94 1.04 0.92 0.88 0.98 1.06 1.18 1.35 1.62 1.83 1.81 1.90 1.82 1.72 1.64 1.65 1.68 1.68
1.05 1.04 0.98 0.90 0.84 0.81 0.78 0.83 0.91 0.89 0.86 0.90 0.91 0.90 0.96 1.12 1.14 1.00 1.05 1.00 1.11 1.15 1.16 1.24 1.24 1.14 1.13 1.21 1.12 1.11 1.06 0.99 1.10 1.02 1.21 1.59 1.76 1.83 1.80 1.82 1.91 1.83 1.67
0.80 0.85 0.82 0.74 0.76 0.82 0.77 0.85 0.89 0.85 0.84 0.82 0.86 0.86 0.89 0.95 0.97 0.90 0.94 0.97 1.12 1.14 1.08 1.20 1.24 1.16 1.25 1.38 1.44 1.43 1.33 1.15 1.27 1.29 1.18 1.30 1.48 1.55 1.67 1.77 1.81 1.74 1.66
0.57 0.60 0.65 0.63 0.66 0.73 0.80 0.87 0.88 0.83 0.86 0.84 0.80 0.77 0.78 0.79 0.88 0.81 0.91 0.97 1.05 1.09 1.11 1.15 1.31 1.22 1.21 1.20 1.27 1.38 1.34 1.17 1.05 1.08 1.05 0.95 0.90 1.02 1.25 1.38 1.65 1.78 1.72
0.50 0.51 0.53 0.55 0.59 0.70 0.76 0.71 0.71 0.73 0.78 0.79 0.82 0.77 0.73 0.79 0.90 0.90 0.95 0.96 1.02 1.09 1.18 1.21 1.20 1.31 1.15 1.10 1.10 1.08 1.18 1.20 1.18 1.22 1.27 1.14 1.02 0.97 1.01 1.08 1.30 1.55 1.69
0.42 0.47 0.45 0.42 0.44 0.50 0.58 0.64 0.64 0.63 0.65 0.65 0.67 0.66 0.66 0.74 0.82 0.81 0.84 0.89 0.98 0.98 1.04 1.04 1.01 1.15 1.00 0.92 0.86 0.91 1.01 1.09 1.16 1.29 1.27 1.20 1.17 1.10 1.07 1.10 1.17 1.29 1.38
0.42 0.45 0.43 0.42 0.40 0.43 0.50 0.58 0.64 0.67 0.66 0.62 0.57 0.56 0.60 0.63 0.71 0.73 0.71 0.70 0.75 0.76 0.73 0.87 0.93 0.93 0.88 0.80 0.84 0.88 0.91 0.93 1.06 1.15 1.14 1.09 1.10 1.17 1.18 1.16 1.18 1.22 1.21
0.38 0.42 0.42 0.44 0.44 0.43 0.47 0.54 0.65 0.67 0.61 0.56 0.56 0.56 0.59 0.61 0.62 0.62 0.64 0.63 0.63 0.67 0.66 0.72 0.78 0.77 0.78 0.79 0.82 0.85 0.89 0.92 0.99 1.02 1.01 1.04 1.05 1.12 1.20 1.18 1.19 1.26 1.30
0.34 0.37 0.38 0.42 0.46 0.44 0.40 0.43 0.54 0.58 0.58 0.60 0.60 0.62 0.64 0.63 0.60 0.58 0.56 0.60 0.65 0.71 0.77 0.71 0.68 0.70 0.71 0.78 0.82 0.82 0.86 0.91 0.91 0.89 0.93 0.97 0.97 1.03 1.07 1.08 1.11 1.17 1.20
0.34 0.36 0.38 0.41 0.46 0.47 0.42 0.40 0.45 0.48 0.56 0.58 0.56 0.56 0.51 0.49 0.50 0.48 0.47 0.53 0.61 0.68 0.79 0.83 0.85 0.90 0.92 0.91 0.88 0.81 0.78 0.81 0.88 0.94 0.96 0.97 0.98 0.96 1.00 1.03 1.06 1.15 1.17
0.41 0.40 0.41 0.42 0.42 0.44 0.46 0.46 0.45 0.42 0.41 0.44 0.45 0.42 0.41 0.44 0.44 0.45 0.45 0.50 0.54 0.60 0.74 0.90 0.93 0.91 0.87 0.85 0.80 0.74 0.70 0.68 0.73 0.83 0.95 1.04 1.05 1.04 1.07 1.11 1.11 1.08 1.07
0.55 0.56 0.51 0.47 0.46 0.45 0.46 0.50 0.53 0.54 0.48 0.39 0.38 0.39 0.39 0.39 0.40 0.44 0.53 0.59 0.56 0.57 0.70 0.80 0.82 0.81 0.75 0.70 0.64 0.60 0.60 0.60 0.60 0.66 0.71 0.81 0.98 1.09 1.16 1.19 1.22 1.24 1.23
0.53 0.57 0.57 0.57 0.55 0.53 0.53 0.58 0.59 0.54 0.48 0.45 0.41 0.39 0.40 0.41 0.42 0.43 0.48 0.51 0.50 0.50 0.54 0.55 0.55 0.57 0.58 0.56 0.54 0.56 0.60 0.61 0.62 0.63 0.63 0.67 0.79 0.94 1.11 1.20 1.25 1.33 1.32
0.39 0.46 0.54 0.59 0.59 0.58 0.60 0.60 0.59 0.56 0.48 0.45 0.42 0.40 0.41 0.40 0.39 0.40 0.41 0.46 0.51 0.51 0.49 0.47 0.48 0.50 0.50 0.50 0.52 0.55 0.62 0.65 0.63 0.65 0.69 0.74 0.83 0.90 0.95 1.04 1.20 1.26 1.20
0.32 0.35 0.41 0.47 0.52 0.52 0.55 0.58 0.59 0.58 0.53 0.50 0.48 0.45 0.46 0.44 0.45 0.43 0.42 0.46 0.50 0.52 0.51 0.51 0.53 0.52 0.52 0.57 0.58 0.58 0.61 0.66 0.66 0.67 0.69 0.75 0.84 0.93 0.99 1.02 1.04 1.09 1.14
0.33 0.34 0.36 0.39 0.45 0.47 0.50 0.52 0.56 0.57 0.56 0.54 0.54 0.54 0.56 0.50 0.49 0.49 0.49 0.51 0.53 0.53 0.54 0.58 0.61 0.58 0.56 0.59 0.64 0.67 0.68 0.68 0.67 0.71 0.76 0.79 0.83 0.89 0.97 1.05 1.07 1.07 1.10
0.31 0.31 0.32 0.37 0.41 0.45 0.46 0.46 0.49 0.51 0.52 0.52 0.50 0.51 0.51 0.50 0.50 0.51 0.54 0.55 0.56 0.58 0.60 0.67 0.70 0.67 0.65 0.66 0.68 0.69 0.72 0.73 0.74 0.76 0.81 0.85 0.85 0.87 0.92 0.98 1.00 1.02 1.04
0.33 0.34 0.38 0.41 0.41 0.39 0.40 0.43 0.45 0.46 0.48 0.50 0.54 0.55 0.54 0.53 0.53 0.51 0.53 0.55 0.56 0.57 0.58 0.62 0.68 0.70 0.73 0.75 0.76 0.75 0.76 0.81 0.78 0.76 0.85 0.95 0.95 0.92 0.94 0.97 0.98 1.00 1.09
0.40 0.38 0.40 0.42 0.44 0.42 0.40 0.41 0.44 0.48 0.50 0.55 0.59 0.60 0.59 0.59 0.57 0.55 0.55 0.56 0.58 0.58 0.59 0.59 0.63 0.68 0.74 0.80 0.80 0.77 0.86 0.90 0.86 0.79 0.76 0.85 0.91 0.94 1.00 1.04 1.08 1.16 1.27
0.44 0.43 0.45 0.43 0.43 0.45 0.47 0.48 0.48 0.52 0.56 0.59 0.62 0.63 0.64 0.66 0.65 0.64 0.64 0.62 0.60 0.57 0.58 0.61 0.65 0.66 0.69 0.76 0.83 0.89 0.90 0.82 0.83 0.89 0.82 0.81 0.88 0.94 1.07 1.17 1.22 1.34 1.41